Keokuk, IA

5:32 AM CST on February 22, 2017 (GMT -0600)
Keokuk Municipal

Weather History for KEOK - December, 2013

Change the Weather History Date:

Monday, December 9, 2013

  Actual Average Record
Temperature  
Mean Temperature 13 °F -  
Max Temperature 21 °F 39 °F 69 °F (1991)
Min Temperature 5 °F 23 °F -5 °F (1958)
Degree Days  
Heating Degree Days 52    
Moisture  
Dew Point 7 °F    
Average Humidity 75    
Maximum Humidity 93    
Minimum Humidity 57    
Precipitation  
Precipitation 0.00 in - - ()
Sea Level Pressure  
Sea Level Pressure 30.22 in    
Wind  
Wind Speed 11 mph (West)    
Max Wind Speed 15 mph    
Max Gust Speed 22 mph    
Visibility 10 miles    
Events      
Averages and records for this station are not official NWS values.
T = Trace of Precipitation, MM = Missing Value Source: NWS Daily Summary

Daily Weather History Graph

Daily Weather History Graph

Search for Another Location

Airport or City:

Trip Planner

Search our weather history database for the weather conditions in past years. The results will help you decide how hot, cold, wet, or windy it might be!

Date:

Astronomy

Dec. 09, 2013 Rise Set
Actual Time 7:17 AM CST 4:38 PM CST
Civil Twilight 6:46 AM CST 5:09 PM CST
Nautical Twilight 6:12 AM CST 5:43 PM CST
Astronomical Twilight 5:39 AM CST 6:16 PM CST
Moon 12:09 PM CST (12/9) No Moon Set
Length of Visible Light 10h 22m
Length of Day
9h 21m
Waxing Crescent, 51% of the Moon is Illuminated
Dec 9
Waxing Crescent
Dec 17
Full
Dec 25
Last Quarter
Jan 1
New
Jan 7
First Quarter

Hourly Weather History & Observations

Time (CST) Temp. Windchill Dew Point Humidity Pressure Visibility Wind Dir Wind Speed Gust Speed Precip Events Conditions
12:15 AM 21.2 °F 8.3 °F 19.4 °F 93% 30.04 in 10.0 mi West 13.8 mph 19.6 mph N/A   Overcast
12:35 AM 21.2 °F 10.1 °F 17.6 °F 86% 30.05 in 10.0 mi West 10.4 mph - N/A   Overcast
1:35 AM 19.4 °F 6.0 °F 15.8 °F 86% 30.07 in 10.0 mi West 13.8 mph - N/A   Clear
1:55 AM 19.4 °F 6.0 °F 15.8 °F 86% 30.08 in 10.0 mi West 13.8 mph - N/A   Clear
2:15 AM 17.6 °F 5.7 °F 15.8 °F 93% 30.08 in 10.0 mi West 10.4 mph - N/A   Clear
2:35 AM 17.6 °F 5.0 °F 15.8 °F 93% 30.09 in 10.0 mi West 11.5 mph - N/A   Clear
2:55 AM 17.6 °F 4.3 °F 15.8 °F 93% 30.11 in 10.0 mi West 12.7 mph - N/A   Mostly Cloudy
3:15 AM 19.4 °F 6.6 °F 15.8 °F 86% 30.13 in 10.0 mi West 12.7 mph - N/A   Overcast
3:35 AM 17.6 °F 5.7 °F 14.0 °F 86% 30.12 in 10.0 mi West 10.4 mph - N/A   Overcast
3:55 AM 17.6 °F 6.4 °F 14.0 °F 86% 30.11 in 10.0 mi West 9.2 mph - N/A   Overcast
4:35 AM 15.8 °F 5.1 °F 12.2 °F 86% 30.12 in 10.0 mi West 8.1 mph - N/A   Mostly Cloudy
4:55 AM 15.8 °F 5.1 °F 12.2 °F 86% 30.14 in 10.0 mi West 8.1 mph - N/A   Scattered Clouds
5:15 AM 14.0 °F 2.9 °F 12.2 °F 93% 30.15 in 10.0 mi West 8.1 mph - N/A   Mostly Cloudy
5:35 AM 14.0 °F 2.9 °F 10.4 °F 86% 30.15 in 10.0 mi West 8.1 mph - N/A   Scattered Clouds
5:55 AM 14.0 °F 2.0 °F 10.4 °F 86% 30.16 in 10.0 mi West 9.2 mph - N/A   Clear
6:15 AM 14.0 °F 2.9 °F 10.4 °F 86% 30.18 in 10.0 mi West 8.1 mph - N/A   Clear
6:35 AM 12.2 °F 0.7 °F 10.4 °F 92% 30.18 in 10.0 mi West 8.1 mph - N/A   Clear
6:55 AM 12.2 °F 0.7 °F 8.6 °F 85% 30.19 in 10.0 mi West 8.1 mph - N/A   Clear
7:15 AM 12.2 °F -0.2 °F 8.6 °F 85% 30.19 in 10.0 mi West 9.2 mph - N/A   Clear
7:35 AM 12.2 °F -0.2 °F 8.6 °F 85% 30.19 in 10.0 mi West 9.2 mph - N/A   Clear
7:55 AM 12.2 °F 0.7 °F 8.6 °F 85% 30.19 in 10.0 mi West 8.1 mph - N/A   Clear
8:15 AM 14.0 °F -0.2 °F 8.6 °F 79% 30.19 in 10.0 mi WNW 12.7 mph - N/A   Clear
8:35 AM 14.0 °F 0.5 °F 8.6 °F 79% 30.19 in 10.0 mi NW 11.5 mph - N/A   Clear
8:55 AM 15.8 °F 1.4 °F 8.6 °F 73% 30.21 in 10.0 mi WNW 13.8 mph - N/A   Clear
9:15 AM 15.8 °F 1.4 °F 8.6 °F 73% 30.22 in 10.0 mi WNW 13.8 mph 20.7 mph N/A   Clear
9:35 AM 15.8 °F 1.4 °F 8.6 °F 73% 30.24 in 10.0 mi WNW 13.8 mph 21.9 mph N/A   Clear
9:55 AM 15.8 °F 3.4 °F 8.6 °F 73% 30.26 in 10.0 mi WNW 10.4 mph 19.6 mph N/A   Clear
10:15 AM 15.8 °F 4.2 °F 8.6 °F 73% 30.27 in 10.0 mi West 9.2 mph 19.6 mph N/A   Partly Cloudy
10:35 AM 15.8 °F 1.4 °F 8.6 °F 73% 30.28 in 10.0 mi West 13.8 mph - N/A   Scattered Clouds
10:55 AM 17.6 °F 4.3 °F 8.6 °F 68% 30.28 in 10.0 mi West 12.7 mph - N/A   Scattered Clouds
11:15 AM 17.6 °F 3.7 °F 8.6 °F 68% 30.28 in 10.0 mi West 13.8 mph - N/A   Mostly Cloudy
11:35 AM 17.6 °F 5.0 °F 8.6 °F 68% 30.28 in 10.0 mi West 11.5 mph - N/A   Mostly Cloudy
11:55 AM 19.4 °F 6.0 °F 8.6 °F 63% 30.28 in 10.0 mi West 13.8 mph - N/A   Scattered Clouds
12:15 PM 17.6 °F 3.7 °F 8.6 °F 68% 30.28 in 10.0 mi West 13.8 mph - N/A   Mostly Cloudy
12:35 PM 19.4 °F 6.6 °F 8.6 °F 63% 30.28 in 10.0 mi West 12.7 mph 18.4 mph N/A   Mostly Cloudy
12:55 PM 19.4 °F 5.5 °F 8.6 °F 63% 30.28 in 10.0 mi WSW 15.0 mph - N/A   Mostly Cloudy
1:15 PM 17.6 °F 6.4 °F 6.8 °F 63% 30.28 in 10.0 mi West 9.2 mph 19.6 mph N/A   Partly Cloudy
1:35 PM 17.6 °F 3.7 °F 8.6 °F 68% 30.28 in 10.0 mi WNW 13.8 mph - N/A   Scattered Clouds
1:55 PM 17.6 °F 5.0 °F 6.8 °F 63% 30.28 in 10.0 mi WNW 11.5 mph - N/A   Partly Cloudy
2:15 PM 15.8 °F 0.9 °F 5.0 °F 62% 30.28 in 10.0 mi West 15.0 mph - N/A   Clear
2:35 PM 15.8 °F 3.4 °F 5.0 °F 62% 30.28 in 10.0 mi WNW 10.4 mph - N/A   Clear
2:55 PM 15.8 °F 2.7 °F 3.2 °F 58% 30.27 in 10.0 mi WNW 11.5 mph - N/A   Clear
3:15 PM 14.0 °F 1.2 °F 3.2 °F 62% 30.26 in 10.0 mi West 10.4 mph 16.1 mph N/A   Clear
3:35 PM 14.0 °F 1.2 °F 3.2 °F 62% 30.26 in 10.0 mi West 10.4 mph - N/A   Clear
3:55 PM 14.0 °F -0.8 °F 3.2 °F 62% 30.27 in 10.0 mi WNW 13.8 mph - N/A   Clear
4:15 PM 14.0 °F 2.9 °F 1.4 °F 57% 30.28 in 10.0 mi WNW 8.1 mph - N/A   Clear
4:35 PM 14.0 °F 2.9 °F 3.2 °F 62% 30.28 in 10.0 mi WNW 8.1 mph - N/A   Clear
4:55 PM 12.2 °F 2.9 °F 3.2 °F 67% 30.28 in 10.0 mi West 5.8 mph - N/A   Clear
5:15 PM 12.2 °F - 3.2 °F 67% 30.29 in 10.0 mi North - - N/A   Clear
5:35 PM 12.2 °F 2.9 °F 3.2 °F 67% 30.28 in 10.0 mi West 5.8 mph - N/A   Clear
5:55 PM 10.4 °F -0.4 °F 1.4 °F 67% 30.28 in 10.0 mi West 6.9 mph - N/A   Clear
6:15 PM 10.4 °F 0.8 °F 1.4 °F 67% 30.28 in 10.0 mi West 5.8 mph - N/A   Clear
6:35 PM 10.4 °F 0.8 °F -0.4 °F 62% 30.27 in 10.0 mi WNW 5.8 mph - N/A   Clear
6:55 PM 8.6 °F 0.1 °F -0.4 °F 67% 30.28 in 10.0 mi West 4.6 mph - N/A   Clear
7:15 PM 8.6 °F 2.0 °F 1.4 °F 73% 30.28 in 10.0 mi SW 3.5 mph - N/A   Clear
7:35 PM 6.8 °F -2.0 °F 1.4 °F 79% 30.28 in 10.0 mi SW 4.6 mph - N/A   Clear
7:55 PM 6.8 °F -2.0 °F 1.4 °F 79% 30.27 in 10.0 mi SW 4.6 mph - N/A   Clear
8:15 PM 6.8 °F -3.5 °F 1.4 °F 79% 30.27 in 10.0 mi SW 5.8 mph - N/A   Clear
8:35 PM 6.8 °F -2.0 °F 1.4 °F 79% 30.26 in 10.0 mi SW 4.6 mph - N/A   Clear
8:55 PM 5.0 °F -5.6 °F 1.4 °F 85% 30.25 in 10.0 mi SW 5.8 mph - N/A   Clear
9:15 PM 6.8 °F -3.5 °F -0.4 °F 72% 30.24 in 10.0 mi SW 5.8 mph - N/A   Clear
9:35 PM 6.8 °F -4.8 °F 1.4 °F 79% 30.25 in 10.0 mi WSW 6.9 mph - N/A   Clear
9:55 PM 8.6 °F 0.1 °F 1.4 °F 73% 30.25 in 10.0 mi WSW 4.6 mph - N/A   Clear
10:15 PM 6.8 °F -3.5 °F 1.4 °F 79% 30.25 in 10.0 mi WSW 5.8 mph - N/A   Clear
10:35 PM 6.8 °F -3.5 °F -0.4 °F 72% 30.26 in 10.0 mi WSW 5.8 mph - N/A   Clear
10:55 PM 6.8 °F -2.0 °F -0.4 °F 72% 30.26 in 10.0 mi WSW 4.6 mph - N/A   Clear
11:15 PM 6.8 °F -5.9 °F -0.4 °F 72% 30.26 in 10.0 mi SW 8.1 mph - N/A   Clear
11:35 PM 6.8 °F -6.9 °F -0.4 °F 72% 30.25 in 10.0 mi SW 9.2 mph - N/A   Clear
11:55 PM 6.8 °F -6.9 °F -0.4 °F 72% 30.24 in 10.0 mi SSW 9.2 mph - N/A   Clear